THORAD AGENA D DEB, 4607

Orbit data source: Space-Track

THORAD AGENA D DEB, 4607 is space debris in SSO originally from a launch on Wed, 08 Apr 1970 UTC launched from the Air Force Western Test Range (AFWTR). Debris objects in space refer to the collection of defunct objects orbiting the Earth. Examples of debris include non-operational satellites, rocket bodies, and fragments generated from explosions, collisions, or faulty payload assembly.

Loading next visibility...
Identifier
4607, 1970-025K
Orbit
SSO
Country
Flag of USUS
Related business
Manufacturer
Unknown
Mission
Spacecraft
Bus & Motor
Unknown
Mass
Unknown
Launch date (UTC)
1970-04-08 (56 years ago)
Launch vehicle
Unknown
Launch site
Air Force Western Test Range (AFWTR)
Object type
Payload
Rocket body
Debris
Shape & HBR
Unknown shape, 0.3 m
Radar Cross Section
Medium (>0.1 m² and <1 m²)

Expand to show TLE details & history
Last TLE update: 16 hours ago

TLE from 16 hours ago
0 THORAD AGENA D DEB
1 04607U 70025K   25307.78415494 -.00000109  00000-0 -31982-3 0  9998
2 04607 100.1993 250.5328 0612577 255.6384 130.2258 12.31142313493556
Epoch: 2025-11-03T18:49Z
TLE epoch observation values (Epoch: 2025-11-03T18:49:10.986Z)
Latitude
30.46774°
Longitude
-81.0909°
Altitude
1,877.756 km
Speed
6.806 km/s
True Right ascension
16h 17m 56s
True Declination
30° 20' 17"
Sunlit
Object was in daylight at epoch
Visualization orbit readout
Latitude
Unknown
Longitude
Unknown
Altitude
Unknown
Speed
Unknown
Apparent Right ascension
Unknown
Apparent Declination
Unknown
Sunlit
N/A
Visualization observer readout
Local Sidereal Time
06:17:54
Azimuth
Unknown
Elevation
Unknown
Doppler factor
Unknown
Orbital elements
Apogee altitude
2,027.01 km
Perigee altitude
1,056.69 km
Semi-major axis
7,919.987 km
Eccentricity
0.06126
Inclination
100.1993°
RAAN
250.5328°
Arg. of periapsis
255.6384°
True anomaly
135.32563°
Mean anomaly
130.2258°
Eccentric anomaly
132.80101°
Mean motion
3.07933 °/min
Orbital period
116.91 mins
BSTAR
-0.00031982
Loading maneuver chart data...
Computing Atmospheric mass density...

Documentation

Showing up to 5 results
|